User: anonymous   Login
Location: Unspecified
(0.0000°N, 0.0000°E)
Time: 14:09:04
(UTC+00:00)
Language:

Kiku-6 - Orbit

View from above orbital plane
View from above orbital plane
View from above satellite
View from above satellite

Ground track
Ground track

The orbit data is extracted from the following two-line orbital elements,

1 23230U 94056A   18114.59677829 -.00000161 +00000-0 +00000-0 0  9991
2 23230 013.0805 109.9879 5032868 097.2572 025.9361 01.67093792144511
Epoch (UTC): 24 April 2018 14:19:21
Eccentricity: 0.5032868
inclination: 13.0805°
perigee height: 8522 km
apogee height: 38717 km
right ascension of ascending node: 109.9879°
argument of perigee: 97.2572°
revolutions per day: 1.67093792
mean anomaly at epoch: 25.9361°
orbit number at epoch: 14451

The dashed part of the orbit path shows where the satellite is in the earth's shadow,  

DLR